Weather History for VIJP - October, 2012

Change the Weather History Date:

Wednesday, October 31, 2012

  Actual Average Record
Temperature  
Mean Temperature 75 °F -  
Max Temperature 89 °F - - ()
Min Temperature 61 °F - - ()
Cooling Degree Days 10    
Growing Degree Days 25 (Base 50)    
Moisture  
Dew Point 51 °F    
Average Humidity 44    
Maximum Humidity 72    
Minimum Humidity 16    
Precipitation  
Precipitation 0.00 in - - ()
Sea Level Pressure  
Sea Level Pressure 29.97 in    
Wind  
Wind Speed 1 mph ()    
Max Wind Speed 8 mph    
Max Gust Speed -    
Visibility 1.3 miles    
Events      
T = Trace of Precipitation, MM = Missing Value Source: Averaged Metar Reports

Daily Weather History Graph

Daily Weather History Graph

Search for Another Location

Airport or City:

Trip Planner

Search our weather history database for the weather conditions in past years. The results will help you decide how hot, cold, wet, or windy it might be!

Date:

Astronomy

Oct. 31, 2012 Rise Set
Actual Time 6:35 AM IST 5:44 PM IST
Civil Twilight 6:11 AM IST 6:08 PM IST
Nautical Twilight 5:44 AM IST 6:35 PM IST
Astronomical Twilight 5:17 AM IST 7:03 PM IST
Moon 6:45 PM IST 7:43 AM IST
Length of Visible Light 11h 56m
Length of Day
11h 08m
Full, 98% of the Moon is Illuminated
Oct 31
Full
Nov 7
Last Quarter
Nov 14
New
Nov 20
First Quarter
Nov 28
Full

Hourly Weather History & Observations

Time (IST) Temp. Heat Index Dew Point Humidity Pressure Visibility Wind Dir Wind Speed Gust Speed Precip Events Conditions
2:00 AM 66.2 °F - 50.0 °F 56% 29.95 in 1.6 mi Calm Calm - N/A   Haze
2:30 AM 66 °F - 52 °F 50% 29.93 in 1 mi Calm Calm - -   Haze
3:00 AM 64.4 °F - 51.8 °F 64% 29.95 in 1.6 mi Calm Calm - N/A   Haze
4:00 AM 64.4 °F - 51.8 °F 64% 29.95 in 1.6 mi Calm Calm - N/A   Haze
5:00 AM 62.6 °F - 51.8 °F 68% 29.95 in 1.6 mi Calm Calm - N/A   Haze
5:30 AM 62 °F - 53 °F 65% 29.95 in 2 mi Calm Calm - -   Haze
6:00 AM 62.6 °F - 53.6 °F 72% 29.98 in 1.6 mi Calm Calm - N/A   Haze
7:00 AM 62.6 °F - 53.6 °F 72% 30.01 in 1.2 mi Calm Calm - N/A   Smoke
8:00 AM 68.0 °F - 53.6 °F 60% 30.04 in 0.6 mi Calm Calm - N/A   Smoke
8:30 AM 70 °F - 57 °F 55% 29.98 in 1 mi Calm Calm - -   Smoke
10:00 AM 80.6 °F 80.5 °F 55.4 °F 42% 30.06 in 1.2 mi East 3.5 mph - N/A   Smoke
11:00 AM 82.4 °F 81.7 °F 55.4 °F 39% 30.04 in 1.2 mi Variable 1.2 mph - N/A   Smoke
11:30 AM 84 °F - 55 °F 26% 29.95 in 1 mi Calm Calm - -   Smoke
12:00 PM 84.2 °F 82.8 °F 53.6 °F 35% 30.01 in 1.2 mi Variable 1.2 mph - N/A   Smoke
1:00 PM 86.0 °F 84.2 °F 53.6 °F 33% 29.98 in 1.2 mi ESE 4.6 mph - N/A   Smoke
2:00 PM 86.0 °F - 51.8 °F 31% 29.95 in 1.2 mi Variable 6.9 mph - N/A   Smoke
2:30 PM 87 °F - 47 °F 16% 29.88 in 1 mi ENE 4.6 mph - -   Smoke
3:00 PM 87.8 °F - 50.0 °F 27% 29.95 in 1.6 mi Variable 4.6 mph - N/A   Smoke
3:30 PM 86.0 °F - 50.0 °F 29% 29.95 in 1.6 mi ENE 8.1 mph - N/A   Smoke
4:00 PM 86.0 °F - 48.2 °F 27% 29.95 in 1.6 mi ENE 6.9 mph - N/A   Smoke
5:00 PM 84.2 °F - 48.2 °F 29% 29.95 in 1.6 mi Calm Calm - N/A   Smoke
5:30 PM 83 °F - 47 °F 18% 29.86 in 1 mi Calm Calm - -   Smoke
6:00 PM 78.8 °F - 48.2 °F 34% 29.95 in 1.6 mi Calm Calm - N/A   Smoke
6:30 PM 78.8 °F - 48.2 °F 34% 29.95 in 1.6 mi Calm Calm - N/A   Smoke
7:00 PM 75.2 °F - 48.2 °F 38% 29.98 in 1.6 mi Calm Calm - N/A   Smoke
7:30 PM 75.2 °F - 48.2 °F 38% 29.98 in 1.2 mi Calm Calm - N/A   Smoke
8:00 PM 73.4 °F - 48.2 °F 41% 29.98 in 1.2 mi Calm Calm - N/A   Smoke
8:30 PM 73 °F - 53 °F 39% 29.93 in 1 mi Calm Calm - -   Smoke
8:30 PM 71.6 °F - 50.0 °F 46% 29.98 in 1.2 mi Calm Calm - N/A   Smoke
9:00 PM 71.6 °F - 50.0 °F 46% 29.98 in 1.2 mi Calm Calm - N/A   Smoke
9:30 PM 71.6 °F - 50.0 °F 46% 29.98 in 1.2 mi Calm Calm - N/A   Smoke
10:00 PM 71.6 °F - 50.0 °F 46% 29.98 in 1.2 mi Calm Calm - N/A   Smoke
11:00 PM 69.8 °F - 51.8 °F 53% 29.98 in 1.2 mi Calm Calm - N/A   Smoke
11:30 PM 69 °F - 53 °F 47% 29.92 in 1 mi Calm Calm - -   Smoke
11:30 PM 69.8 °F - 51.8 °F 53% 29.98 in 1.2 mi Calm Calm - N/A   Smoke